This is the latest recevied weather packets stored in our database for station/object DB0TV-13. If no packets are shown the sender has not sent any weather packets the latest 10 day(s).
| Time | Temp. | Humidity | Pressure | Rain* | Wind** | Luminosity | Snow |
|---|---|---|---|---|---|---|---|
| 1777715419 | 21.11° C | 51% | 1019.6 hPa | 0 mm | - | 608 W/m² | - |
| 1777714819 | 21.11° C | 51% | 1019.7 hPa | 0 mm | - | 691 W/m² | - |
| 1777714219 | 20.56° C | 51% | 1019.8 hPa | 0 mm | - | 687 W/m² | - |
| 1777713620 | 20.56° C | 50% | 1019.7 hPa | 0 mm | - | 593 W/m² | - |
| 1777713019 | 20° C | 50% | 1019.6 hPa | 0 mm | - | 561 W/m² | - |
| 1777712419 | 20° C | 50% | 1019.7 hPa | 0 mm | - | 428 W/m² | - |
| 1777711819 | 20° C | 48% | 1019.8 hPa | 0 mm | - | 468 W/m² | - |
| 1777711219 | 19.44° C | 48% | 1019.7 hPa | 0 mm | - | 364 W/m² | - |
| 1777710619 | 19.44° C | 48% | 1019.9 hPa | 0 mm | - | 444 W/m² | - |
| 1777710019 | 19.44° C | 46% | 1020 hPa | 0 mm | - | 497 W/m² | - |
| 1777709419 | 19.44° C | 46% | 1020.1 hPa | 0 mm | - | 275 W/m² | - |
| 1777708819 | 20° C | 46% | 1020.1 hPa | 0 mm | - | 576 W/m² | - |
| 1777708219 | 19.44° C | 47% | 1020 hPa | 0 mm | - | 495 W/m² | - |
| 1777707619 | 19.44° C | 47% | 1020.1 hPa | 0 mm | - | 480 W/m² | - |
| 1777707019 | 19.44° C | 48% | 1020 hPa | 0 mm | - | 485 W/m² | - |
| 1777706419 | 18.89° C | 49% | 1020.1 hPa | 0 mm | - | 469 W/m² | - |
| 1777705819 | 18.33° C | 48% | 1020.2 hPa | 0 mm | - | 421 W/m² | - |
| 1777705219 | 18.33° C | 49% | 1020.2 hPa | 0 mm | - | 396 W/m² | - |
| 1777704619 | 17.78° C | 50% | 1020.4 hPa | 0 mm | - | 370 W/m² | - |
| 1777704019 | 17.22° C | 51% | 1020.3 hPa | 0 mm | - | 346 W/m² | - |
| 1777703419 | 16.67° C | 52% | 1020.2 hPa | 0 mm | - | 314 W/m² | - |
| 1777702819 | 16.67° C | 51% | 1020.2 hPa | 0 mm | - | 284 W/m² | - |
| 1777702219 | 16.11° C | 52% | 1020.2 hPa | 0 mm | - | 253 W/m² | - |
| 1777701619 | 15.56° C | 53% | 1020.2 hPa | 0 mm | - | 228 W/m² | - |
| 1777701019 | 15.56° C | 53% | 1020.1 hPa | 0 mm | - | 198 W/m² | - |
* Rain latest hour (hover to see other rain measurements)
** Current wind speed in m/s (hover to see current wind gust speed)